Precipitable_Water
0.58 0.59 0.59 0.58 0.58 0.57 0.55 0.54 0.53 0.52 0.53 0.55 0.58 0.61 0.61 0.60 0.60 0.59 0.56 0.53 0.53 0.54 0.54 0.52 0.50 0.55 0.60 0.63 0.64 0.68 0.73 0.62 0.52 0.46 0.47 0.47 0.61 0.88 1.06 1.24 1.43 1.60 1.63 1.56 1.58 1.52 1.49 1.59 1.58 1.75 1.69 1.67 1.63 1.62 1.76 1.78 1.81 1.67 1.31 1.17 1.05 1.12 1.09 1.22 1.20 1.30 1.41 1.30 1.35 1.39 1.44 1.43 1.30 1.40 1.42 1.49 1.32 1.30 1.26 1.24 1.28 1.32 1.24 1.36 1.35 1.36 1.39 1.48
0.56 0.58 0.59 0.58 0.58 0.57 0.56 0.53 0.52 0.50 0.48 0.50 0.53 0.57 0.61 0.62 0.61 0.59 0.56 0.54 0.53 0.52 0.53 0.52 0.49 0.55 0.63 0.61 0.65 0.73 0.72 0.66 0.60 0.58 0.53 0.73 0.82 1.02 1.16 1.33 1.51 1.59 1.57 1.48 1.38 1.43 1.42 1.43 1.52 1.59 1.53 1.41 1.67 1.48 1.73 1.57 1.79 1.45 1.31 1.23 1.03 1.17 1.23 1.40 1.40 1.42 1.39 1.35 1.40 1.40 1.43 1.44 1.41 1.44 1.39 1.29 1.16 1.17 1.11 1.18 1.27 1.19 1.23 1.26 1.27 1.28 1.36 1.36
0.55 0.55 0.58 0.58 0.58 0.58 0.56 0.54 0.52 0.50 0.48 0.47 0.48 0.52 0.57 0.61 0.63 0.61 0.57 0.55 0.52 0.52 0.52 0.51 0.50 0.54 0.60 0.63 0.69 0.76 0.74 0.72 0.74 0.64 0.74 0.91 0.99 1.12 1.29 1.44 1.55 1.56 1.48 1.40 1.41 1.51 1.46 1.44 1.51 1.50 1.40 1.35 1.44 1.35 1.51 1.48 1.61 1.53 1.37 1.07 1.11 1.35 1.38 1.44 1.47 1.45 1.47 1.49 1.43 1.40 1.44 1.47 1.48 1.46 1.46 1.32 1.17 1.20 1.13 1.09 1.17 1.17 1.11 1.11 1.17 1.26 1.29 1.26
0.54 0.54 0.56 0.57 0.57 0.57 0.56 0.55 0.53 0.50 0.48 0.47 0.46 0.47 0.51 0.57 0.61 0.63 0.61 0.56 0.53 0.51 0.50 0.51 0.50 0.53 0.60 0.61 0.69 0.79 0.79 0.74 0.64 0.70 0.96 1.08 1.10 1.26 1.42 1.52 1.54 1.49 1.47 1.41 1.44 1.50 1.59 1.54 1.53 1.45 1.38 1.25 1.31 1.41 1.29 1.44 1.38 1.48 1.37 1.16 1.26 1.47 1.35 1.45 1.51 1.50 1.48 1.50 1.48 1.46 1.49 1.44 1.46 1.48 1.42 1.38 1.22 1.19 1.24 1.28 1.23 1.16 1.17 1.09 1.14 1.19 1.23 1.19
0.53 0.54 0.54 0.55 0.56 0.56 0.56 0.55 0.53 0.51 0.49 0.47 0.46 0.45 0.47 0.51 0.57 0.62 0.63 0.59 0.54 0.51 0.50 0.51 0.51 0.53 0.58 0.63 0.69 0.79 0.71 0.60 0.58 0.86 1.03 1.10 1.19 1.36 1.49 1.51 1.52 1.48 1.48 1.41 1.41 1.49 1.48 1.46 1.44 1.40 1.31 1.15 1.24 1.26 1.27 1.34 1.43 1.43 1.27 1.37 1.41 1.45 1.36 1.49 1.50 1.52 1.47 1.53 1.50 1.48 1.38 1.42 1.62 1.55 1.48 1.42 1.25 1.17 1.30 1.37 1.37 1.34 1.26 1.18 1.07 1.16 1.19 1.14
0.51 0.52 0.53 0.53 0.54 0.55 0.55 0.55 0.53 0.52 0.50 0.48 0.46 0.45 0.45 0.47 0.52 0.59 0.62 0.62 0.57 0.53 0.49 0.50 0.52 0.50 0.55 0.63 0.71 0.74 0.59 0.39 0.64 0.82 1.04 1.11 1.22 1.38 1.49 1.53 1.51 1.50 1.47 1.38 1.37 1.40 1.39 1.34 1.34 1.21 1.21 1.18 1.10 1.03 1.12 1.22 1.39 1.12 1.29 1.34 1.39 1.42 1.41 1.53 1.56 1.49 1.48 1.42 1.43 1.38 1.49 1.61 1.45 1.48 1.53 1.52 1.45 1.54 1.57 1.55 1.49 1.41 1.36 1.29 1.22 1.14 1.14 1.10
0.51 0.51 0.51 0.51 0.53 0.54 0.54 0.55 0.54 0.52 0.51 0.49 0.46 0.45 0.44 0.45 0.48 0.54 0.60 0.62 0.60 0.54 0.51 0.49 0.52 0.50 0.54 0.62 0.72 0.63 0.55 0.55 0.67 0.90 0.99 1.13 1.22 1.34 1.44 1.50 1.51 1.51 1.44 1.37 1.39 1.35 1.33 1.27 1.26 1.18 1.18 1.14 1.11 0.99 1.06 1.11 1.29 1.17 1.10 1.28 1.28 1.42 1.45 1.58 1.53 1.53 1.48 1.43 1.41 1.54 1.60 1.47 1.47 1.35 1.59 1.49 1.61 1.64 1.69 1.65 1.64 1.55 1.45 1.34 1.17 1.14 1.11 1.08
0.51 0.50 0.49 0.50 0.51 0.52 0.53 0.54 0.55 0.53 0.52 0.50 0.47 0.45 0.44 0.43 0.46 0.49 0.56 0.60 0.60 0.57 0.54 0.50 0.52 0.48 0.54 0.53 0.51 0.55 0.52 0.48 0.73 0.95 0.97 1.13 1.23 1.29 1.43 1.50 1.50 1.44 1.34 1.32 1.35 1.33 1.36 1.22 1.16 1.22 1.13 1.03 0.98 0.99 1.01 1.12 1.17 1.11 1.10 1.19 1.23 1.40 1.45 1.52 1.52 1.51 1.49 1.50 1.54 1.52 1.42 1.44 1.51 1.51 1.56 1.46 1.60 1.66 1.67 1.69 1.68 1.60 1.47 1.30 1.21 1.15 1.13 1.12
0.50 0.50 0.49 0.49 0.49 0.51 0.52 0.53 0.55 0.54 0.53 0.51 0.49 0.46 0.44 0.43 0.44 0.47 0.50 0.58 0.60 0.59 0.55 0.53 0.49 0.51 0.54 0.49 0.42 0.44 0.44 0.65 0.92 0.96 0.97 1.14 1.25 1.37 1.41 1.35 1.49 1.34 1.30 1.33 1.40 1.38 1.33 1.23 1.24 1.26 1.03 0.97 1.05 0.96 0.93 0.98 1.00 1.12 1.11 1.19 1.22 1.26 1.36 1.40 1.41 1.42 1.41 1.43 1.48 1.39 1.37 1.47 1.51 1.58 1.41 1.52 1.58 1.67 1.67 1.66 1.67 1.60 1.43 1.27 1.21 1.19 1.13 1.11
0.50 0.50 0.49 0.48 0.48 0.50 0.51 0.52 0.54 0.54 0.53 0.51 0.50 0.47 0.45 0.43 0.43 0.46 0.48 0.53 0.58 0.59 0.58 0.54 0.50 0.53 0.43 0.40 0.40 0.37 0.55 0.96 0.97 0.99 0.92 1.18 1.31 1.35 1.38 1.39 1.40 1.32 1.26 1.32 1.39 1.36 1.28 1.28 1.22 1.29 1.22 1.11 1.07 0.91 0.94 0.97 0.89 1.15 1.15 1.21 1.19 1.24 1.28 1.33 1.29 1.32 1.36 1.34 1.36 1.26 1.25 1.31 1.45 1.36 1.20 1.48 1.59 1.63 1.56 1.57 1.62 1.55 1.43 1.28 1.24 1.24 1.17 1.11
0.51 0.50 0.49 0.49 0.48 0.48 0.50 0.51 0.52 0.54 0.54 0.52 0.50 0.48 0.46 0.44 0.43 0.43 0.47 0.49 0.55 0.59 0.59 0.54 0.55 0.51 0.39 0.37 0.32 0.34 0.64 0.81 1.11 0.99 0.96 1.15 1.29 1.28 1.30 1.32 1.38 1.31 1.30 1.33 1.33 1.36 1.36 1.33 1.36 1.28 1.22 0.96 0.98 0.86 0.91 0.92 1.17 1.15 1.17 1.18 1.19 1.26 1.29 1.28 1.29 1.28 1.33 1.21 1.35 1.26 1.14 1.25 1.29 1.24 1.20 1.33 1.48 1.48 1.39 1.44 1.50 1.50 1.44 1.35 1.24 1.22 1.17 1.15
0.51 0.50 0.49 0.48 0.48 0.48 0.49 0.50 0.51 0.52 0.54 0.53 0.51 0.49 0.47 0.45 0.43 0.42 0.44 0.47 0.50 0.58 0.58 0.57 0.54 0.51 0.42 0.33 0.29 0.32 0.60 0.68 0.99 1.04 1.04 1.15 1.18 1.28 1.36 1.35 1.36 1.35 1.32 1.24 1.28 1.35 1.37 1.34 1.32 1.18 0.96 1.05 0.85 0.87 0.85 1.08 1.16 1.13 1.14 1.02 1.04 1.15 1.14 1.21 1.16 1.21 1.28 1.16 1.30 1.26 1.07 0.98 1.04 0.97 1.18 1.32 1.40 1.40 1.35 1.38 1.45 1.47 1.47 1.42 1.27 1.19 1.13 1.09
0.50 0.49 0.48 0.48 0.48 0.48 0.48 0.50 0.50 0.51 0.52 0.53 0.52 0.50 0.48 0.45 0.44 0.43 0.43 0.44 0.50 0.54 0.59 0.58 0.55 0.52 0.37 0.21 0.25 0.38 0.54 0.71 0.84 0.93 1.00 1.12 1.21 1.30 1.31 1.34 1.33 1.36 1.33 1.24 1.22 1.29 1.34 1.31 1.26 1.05 1.07 0.97 0.87 0.77 0.82 1.09 1.04 1.10 1.01 0.94 1.03 0.98 1.02 1.13 1.22 1.21 1.17 1.19 1.29 1.23 0.77 0.80 0.91 1.06 1.17 1.29 1.32 1.34 1.31 1.32 1.38 1.43 1.47 1.47 1.35 1.20 1.12 1.13
0.49 0.49 0.48 0.47 0.47 0.47 0.47 0.48 0.49 0.50 0.51 0.53 0.53 0.51 0.48 0.45 0.45 0.44 0.43 0.42 0.48 0.52 0.59 0.58 0.60 0.48 0.40 0.23 0.28 0.34 0.46 0.70 0.81 0.78 0.86 0.94 1.01 1.06 1.21 1.29 1.29 1.25 1.27 1.23 1.27 1.31 1.28 1.29 1.19 1.13 1.09 0.94 0.86 0.95 0.83 0.91 0.96 0.94 0.94 0.93 0.82 0.79 0.81 1.05 1.12 1.11 1.05 1.21 1.27 1.20 0.78 0.80 0.92 1.04 1.19 1.28 1.31 1.26 1.22 1.27 1.30 1.35 1.41 1.45 1.46 1.34 1.17 1.09
0.49 0.48 0.48 0.47 0.47 0.46 0.47 0.47 0.48 0.47 0.48 0.52 0.54 0.51 0.48 0.44 0.46 0.45 0.44 0.43 0.46 0.49 0.55 0.61 0.61 0.44 0.29 0.26 0.31 0.36 0.42 0.63 0.67 0.70 0.82 0.82 0.86 0.95 1.03 1.16 1.18 1.21 1.24 1.29 1.27 1.29 1.29 1.23 1.16 1.01 0.92 0.99 0.90 0.79 0.73 0.82 0.81 0.80 0.85 0.69 0.80 0.69 0.77 0.95 1.10 1.07 0.97 1.09 1.23 1.11 0.88 0.79 0.90 1.02 1.15 1.25 1.28 1.26 1.21 1.22 1.24 1.29 1.34 1.38 1.41 1.40 1.31 1.21
0.49 0.48 0.47 0.47 0.46 0.46 0.46 0.47 0.47 0.47 0.47 0.53 0.54 0.51 0.48 0.49 0.46 0.45 0.46 0.46 0.44 0.49 0.56 0.51 0.51 0.40 0.28 0.21 0.29 0.48 0.37 0.37 0.57 0.72 0.79 0.82 0.83 0.89 1.03 1.10 1.14 1.20 1.22 1.19 1.28 1.27 1.24 1.20 1.00 0.98 0.89 0.85 0.75 0.70 0.68 0.73 0.79 0.74 0.60 0.55 0.58 0.64 0.70 0.75 0.93 1.07 1.12 1.09 1.17 1.06 0.82 0.86 0.82 1.02 1.10 1.19 1.20 1.22 1.18 1.14 1.16 1.21 1.26 1.30 1.32 1.35 1.35 1.32
0.50 0.49 0.48 0.47 0.46 0.46 0.46 0.47 0.47 0.46 0.48 0.53 0.53 0.52 0.50 0.49 0.49 0.47 0.46 0.47 0.47 0.50 0.45 0.36 0.49 0.47 0.23 0.33 0.34 0.25 0.23 0.30 0.58 0.68 0.76 0.84 0.84 0.88 0.98 1.03 1.07 1.10 1.13 1.15 1.18 1.20 1.17 1.04 1.03 0.90 0.87 0.75 0.74 0.66 0.60 0.58 0.58 0.63 0.63 0.56 0.57 0.56 0.59 0.67 0.82 1.05 1.07 1.06 0.90 0.99 0.86 0.87 0.84 0.99 1.06 1.11 1.14 1.11 1.12 1.11 1.12 1.17 1.20 1.23 1.26 1.28 1.30 1.32
0.52 0.50 0.49 0.48 0.47 0.46 0.46 0.47 0.48 0.45 0.49 0.53 0.52 0.50 0.48 0.51 0.52 0.48 0.45 0.47 0.49 0.44 0.45 0.51 0.46 0.38 0.23 0.29 0.23 0.23 0.29 0.28 0.39 0.59 0.71 0.85 0.84 0.88 0.93 0.97 1.06 1.05 1.05 1.02 1.11 1.00 1.08 0.92 0.93 0.76 0.75 0.70 0.66 0.62 0.53 0.48 0.50 0.49 0.50 0.50 0.53 0.59 0.61 0.58 0.63 0.83 0.97 0.96 0.88 0.94 0.85 0.87 0.90 0.91 0.99 1.04 1.07 1.06 1.06 1.07 1.08 1.11 1.15 1.19 1.20 1.21 1.23 1.26
0.53 0.52 0.51 0.49 0.48 0.47 0.47 0.47 0.47 0.46 0.49 0.53 0.55 0.58 0.59 0.59 0.58 0.55 0.41 0.40 0.30 0.22 0.15 0.17 0.20 0.16 0.17 0.21 0.27 0.30 0.28 0.35 0.39 0.53 0.61 0.74 0.79 0.89 0.94 1.05 1.08 0.97 0.89 0.88 0.91 0.94 0.97 0.89 0.85 0.71 0.62 0.63 0.60 0.57 0.56 0.54 0.52 0.51 0.51 0.50 0.50 0.52 0.53 0.60 0.70 0.80 0.84 0.83 0.80 0.82 0.84 0.81 0.86 0.91 0.93 0.98 1.03 0.99 1.00 1.06 1.08 1.06 1.10 1.15 1.16 1.16 1.18 1.19
0.55 0.53 0.52 0.51 0.50 0.49 0.47 0.47 0.47 0.46 0.49 0.49 0.50 0.54 0.49 0.37 0.36 0.31 0.40 0.36 0.23 0.18 0.20 0.25 0.20 0.22 0.27 0.29 0.25 0.38 0.39 0.37 0.30 0.45 0.62 0.76 0.76 0.81 0.93 1.00 0.99 0.96 0.89 0.77 0.83 0.87 0.93 0.73 0.67 0.64 0.63 0.62 0.62 0.59 0.57 0.56 0.54 0.53 0.52 0.51 0.51 0.51 0.53 0.57 0.61 0.77 0.82 0.77 0.74 0.81 0.78 0.81 0.83 0.86 0.91 0.95 0.97 0.95 0.94 0.94 0.97 1.02 1.03 1.05 1.09 1.11 1.14 1.16
0.59 0.55 0.53 0.52 0.51 0.50 0.49 0.47 0.47 0.46 0.49 0.50 0.45 0.39 0.27 0.29 0.18 0.21 0.29 0.28 0.27 0.27 0.22 0.23 0.23 0.22 0.23 0.36 0.36 0.35 0.33 0.29 0.32 0.37 0.57 0.79 0.79 0.80 0.84 0.91 0.86 0.79 0.83 0.85 0.83 0.87 0.88 0.69 0.66 0.72 0.71 0.66 0.62 0.59 0.57 0.55 0.53 0.49 0.47 0.46 0.46 0.47 0.50 0.57 0.65 0.71 0.85 0.76 0.69 0.73 0.74 0.77 0.79 0.86 0.89 0.95 0.92 0.88 0.87 0.88 0.90 0.95 1.00 1.04 1.05 1.06 1.10 1.16
0.62 0.58 0.55 0.53 0.53 0.52 0.50 0.48 0.47 0.46 0.50 0.50 0.41 0.35 0.34 0.34 0.40 0.45 0.35 0.21 0.31 0.29 0.27 0.26 0.29 0.24 0.32 0.34 0.38 0.38 0.36 0.32 0.25 0.34 0.56 0.71 0.72 0.64 0.78 0.81 0.77 0.72 0.82 0.85 0.84 0.74 0.70 0.65 0.70 0.71 0.72 0.68 0.63 0.59 0.57 0.52 0.48 0.47 0.45 0.43 0.42 0.44 0.51 0.55 0.61 0.70 0.80 0.71 0.68 0.74 0.68 0.70 0.75 0.82 0.88 0.86 0.88 0.91 0.95 0.92 0.92 0.94 0.95 0.99 1.02 1.05 1.09 1.13
0.64 0.61 0.56 0.54 0.53 0.53 0.50 0.49 0.47 0.47 0.48 0.43 0.33 0.35 0.37 0.48 0.59 0.62 0.48 0.32 0.21 0.27 0.26 0.24 0.22 0.21 0.26 0.35 0.39 0.40 0.31 0.26 0.23 0.31 0.42 0.59 0.63 0.65 0.72 0.71 0.74 0.76 0.80 0.79 0.68 0.66 0.61 0.69 0.77 0.79 0.73 0.66 0.60 0.57 0.54 0.50 0.48 0.45 0.44 0.41 0.41 0.48 0.44 0.50 0.58 0.66 0.73 0.69 0.74 0.73 0.66 0.67 0.77 0.84 0.86 0.87 0.86 0.91 0.95 0.95 0.95 0.95 0.92 0.95 0.98 1.01 1.03 1.06
0.66 0.64 0.60 0.55 0.55 0.53 0.52 0.49 0.48 0.49 0.46 0.40 0.34 0.36 0.51 0.58 0.61 0.60 0.43 0.26 0.20 0.24 0.23 0.25 0.23 0.24 0.23 0.27 0.37 0.35 0.29 0.29 0.31 0.28 0.42 0.50 0.51 0.66 0.63 0.68 0.70 0.71 0.70 0.73 0.71 0.68 0.66 0.72 0.71 0.71 0.69 0.63 0.55 0.53 0.50 0.46 0.42 0.42 0.40 0.39 0.38 0.39 0.45 0.46 0.65 0.69 0.73 0.72 0.69 0.66 0.59 0.61 0.66 0.74 0.72 0.82 0.88 0.88 0.89 0.92 0.93 0.96 0.97 0.99 1.02 1.03 1.04 1.04
0.70 0.66 0.63 0.58 0.54 0.55 0.49 0.49 0.44 0.42 0.40 0.34 0.36 0.49 0.58 0.62 0.63 0.64 0.39 0.28 0.25 0.21 0.33 0.26 0.27 0.24 0.28 0.39 0.41 0.30 0.30 0.35 0.31 0.37 0.39 0.44 0.49 0.53 0.58 0.69 0.67 0.62 0.67 0.73 0.74 0.70 0.73 0.75 0.73 0.66 0.66 0.61 0.55 0.50 0.48 0.46 0.40 0.36 0.37 0.36 0.35 0.37 0.40 0.49 0.59 0.55 0.53 0.55 0.61 0.59 0.50 0.53 0.65 0.66 0.68 0.85 0.80 0.77 0.88 0.83 0.83 0.89 0.92 0.94 0.93 0.96 1.01 1.03
0.71 0.69 0.65 0.61 0.56 0.53 0.51 0.40 0.46 0.38 0.32 0.30 0.43 0.56 0.62 0.63 0.69 0.63 0.39 0.21 0.12 0.23 0.22 0.16 0.26 0.19 0.31 0.24 0.33 0.33 0.36 0.25 0.32 0.39 0.40 0.42 0.55 0.50 0.56 0.57 0.63 0.58 0.64 0.69 0.69 0.72 0.74 0.80 0.71 0.67 0.64 0.59 0.52 0.48 0.47 0.43 0.37 0.31 0.35 0.36 0.36 0.35 0.38 0.51 0.51 0.47 0.44 0.43 0.66 0.64 0.54 0.48 0.45 0.53 0.64 0.80 0.74 0.74 0.83 0.81 0.83 0.88 0.89 0.90 0.89 0.93 0.95 0.96
0.71 0.70 0.68 0.64 0.58 0.56 0.36 0.32 0.45 0.38 0.26 0.35 0.51 0.60 0.60 0.60 0.75 0.59 0.29 0.21 0.13 0.23 0.14 0.27 0.21 0.30 0.27 0.28 0.29 0.35 0.18 0.20 0.33 0.38 0.36 0.43 0.42 0.52 0.46 0.49 0.57 0.64 0.71 0.75 0.65 0.60 0.72 0.69 0.67 0.67 0.63 0.55 0.50 0.42 0.45 0.42 0.34 0.29 0.36 0.38 0.36 0.36 0.38 0.46 0.50 0.48 0.59 0.55 0.57 0.58 0.50 0.47 0.45 0.61 0.64 0.73 0.69 0.71 0.76 0.77 0.80 0.85 0.87 0.87 0.89 0.90 0.91 0.94
0.71 0.71 0.70 0.67 0.61 0.56 0.42 0.44 0.39 0.30 0.28 0.40 0.54 0.57 0.62 0.65 0.69 0.60 0.29 0.12 0.10 0.24 0.21 0.22 0.24 0.41 0.32 0.31 0.34 0.24 0.30 0.38 0.22 0.30 0.36 0.43 0.44 0.45 0.40 0.44 0.47 0.55 0.63 0.64 0.47 0.65 0.67 0.65 0.64 0.62 0.60 0.54 0.48 0.46 0.39 0.39 0.33 0.31 0.35 0.38 0.38 0.36 0.42 0.45 0.44 0.47 0.50 0.45 0.47 0.48 0.56 0.38 0.38 0.55 0.59 0.59 0.56 0.62 0.69 0.73 0.75 0.80 0.84 0.86 0.86 0.88 0.91 0.93
0.71 0.71 0.71 0.69 0.63 0.57 0.55 0.45 0.40 0.30 0.37 0.45 0.52 0.58 0.62 0.72 0.59 0.34 0.24 0.12 0.24 0.28 0.34 0.25 0.34 0.33 0.31 0.32 0.29 0.26 0.28 0.33 0.21 0.29 0.36 0.42 0.43 0.42 0.30 0.36 0.44 0.53 0.61 0.62 0.57 0.57 0.61 0.63 0.64 0.66 0.60 0.51 0.51 0.44 0.42 0.40 0.32 0.43 0.42 0.43 0.42 0.44 0.46 0.45 0.45 0.45 0.46 0.34 0.35 0.50 0.49 0.39 0.43 0.57 0.61 0.57 0.52 0.56 0.61 0.71 0.77 0.78 0.81 0.84 0.84 0.86 0.90 0.93
0.72 0.71 0.71 0.70 0.64 0.56 0.52 0.52 0.39 0.39 0.39 0.46 0.54 0.60 0.64 0.60 0.44 0.21 0.15 0.08 0.31 0.22 0.30 0.29 0.23 0.25 0.30 0.23 0.23 0.27 0.27 0.29 0.31 0.36 0.35 0.33 0.37 0.38 0.37 0.41 0.38 0.44 0.48 0.59 0.63 0.68 0.48 0.59 0.61 0.57 0.53 0.53 0.45 0.45 0.45 0.41 0.37 0.40 0.44 0.48 0.43 0.45 0.47 0.46 0.47 0.47 0.42 0.29 0.36 0.47 0.51 0.41 0.37 0.45 0.54 0.51 0.52 0.55 0.65 0.69 0.77 0.82 0.83 0.85 0.87 0.87 0.87 0.90
0.72 0.72 0.71 0.72 0.56 0.54 0.48 0.35 0.42 0.49 0.47 0.53 0.57 0.59 0.59 0.45 0.27 0.22 0.14 0.19 0.29 0.29 0.31 0.26 0.23 0.27 0.26 0.22 0.19 0.26 0.26 0.28 0.29 0.32 0.29 0.35 0.34 0.33 0.33 0.29 0.39 0.37 0.41 0.47 0.52 0.61 0.56 0.52 0.54 0.57 0.59 0.53 0.50 0.46 0.47 0.44 0.41 0.40 0.45 0.44 0.43 0.40 0.43 0.38 0.41 0.40 0.31 0.29 0.44 0.46 0.45 0.44 0.31 0.38 0.42 0.58 0.55 0.58 0.59 0.66 0.72 0.78 0.82 0.85 0.87 0.89 0.90 0.91
0.74 0.73 0.72 0.68 0.65 0.64 0.41 0.34 0.45 0.55 0.54 0.56 0.52 0.49 0.41 0.26 0.24 0.15 0.12 0.23 0.22 0.29 0.27 0.25 0.26 0.26 0.27 0.27 0.23 0.23 0.24 0.26 0.31 0.30 0.28 0.28 0.29 0.26 0.27 0.23 0.25 0.22 0.26 0.35 0.40 0.54 0.52 0.52 0.58 0.58 0.58 0.53 0.47 0.44 0.41 0.40 0.40 0.40 0.39 0.38 0.32 0.35 0.29 0.27 0.32 0.25 0.24 0.27 0.43 0.41 0.39 0.36 0.31 0.45 0.49 0.54 0.57 0.58 0.55 0.63 0.73 0.80 0.82 0.85 0.87 0.90 0.93 0.94
0.76 0.74 0.72 0.68 0.66 0.56 0.51 0.49 0.51 0.48 0.53 0.49 0.41 0.44 0.28 0.22 0.17 0.18 0.16 0.18 0.24 0.35 0.30 0.34 0.27 0.23 0.26 0.27 0.25 0.25 0.26 0.21 0.29 0.29 0.29 0.29 0.27 0.26 0.28 0.25 0.28 0.22 0.22 0.33 0.40 0.41 0.43 0.52 0.53 0.55 0.56 0.54 0.49 0.38 0.35 0.31 0.36 0.36 0.34 0.34 0.30 0.27 0.23 0.22 0.26 0.28 0.33 0.39 0.40 0.37 0.44 0.28 0.39 0.43 0.48 0.51 0.60 0.61 0.63 0.66 0.70 0.77 0.84 0.87 0.89 0.90 0.93 0.95
0.78 0.76 0.67 0.67 0.63 0.59 0.56 0.54 0.48 0.44 0.40 0.41 0.35 0.32 0.29 0.20 0.15 0.26 0.20 0.21 0.28 0.36 0.35 0.30 0.27 0.24 0.23 0.23 0.24 0.27 0.21 0.27 0.28 0.28 0.28 0.28 0.27 0.26 0.26 0.26 0.29 0.24 0.26 0.35 0.34 0.37 0.32 0.33 0.41 0.47 0.42 0.50 0.46 0.41 0.38 0.33 0.33 0.31 0.34 0.34 0.31 0.29 0.25 0.21 0.24 0.23 0.23 0.30 0.38 0.41 0.29 0.26 0.26 0.37 0.47 0.50 0.53 0.56 0.59 0.65 0.72 0.74 0.78 0.89 0.93 0.92 0.93 0.95
0.79 0.75 0.71 0.67 0.65 0.66 0.63 0.57 0.50 0.47 0.40 0.35 0.31 0.27 0.18 0.16 0.19 0.18 0.14 0.22 0.29 0.32 0.30 0.31 0.27 0.24 0.22 0.25 0.28 0.28 0.25 0.23 0.27 0.29 0.26 0.27 0.24 0.26 0.24 0.23 0.27 0.27 0.24 0.26 0.34 0.37 0.34 0.35 0.40 0.45 0.48 0.47 0.42 0.44 0.43 0.38 0.32 0.31 0.31 0.33 0.29 0.29 0.33 0.26 0.30 0.27 0.28 0.33 0.31 0.30 0.25 0.35 0.30 0.52 0.52 0.50 0.52 0.53 0.55 0.62 0.66 0.68 0.73 0.81 0.87 0.89 0.91 0.93
0.76 0.72 0.72 0.65 0.63 0.67 0.68 0.61 0.50 0.43 0.38 0.32 0.25 0.22 0.18 0.19 0.20 0.20 0.26 0.31 0.30 0.26 0.27 0.28 0.28 0.25 0.23 0.22 0.27 0.27 0.27 0.24 0.25 0.26 0.26 0.26 0.27 0.24 0.28 0.26 0.23 0.23 0.24 0.20 0.29 0.27 0.32 0.32 0.37 0.40 0.44 0.44 0.43 0.44 0.41 0.39 0.26 0.30 0.29 0.25 0.27 0.34 0.31 0.28 0.28 0.29 0.28 0.25 0.22 0.40 0.31 0.27 0.33 0.35 0.42 0.47 0.50 0.50 0.51 0.55 0.60 0.64 0.68 0.77 0.82 0.89 0.92 0.94
0.71 0.69 0.64 0.68 0.68 0.72 0.72 0.66 0.50 0.38 0.37 0.31 0.22 0.18 0.23 0.26 0.27 0.23 0.26 0.27 0.28 0.27 0.27 0.21 0.25 0.25 0.24 0.21 0.22 0.24 0.26 0.26 0.27 0.23 0.23 0.26 0.24 0.26 0.27 0.28 0.28 0.24 0.25 0.25 0.26 0.33 0.28 0.31 0.35 0.35 0.35 0.43 0.43 0.42 0.39 0.37 0.34 0.33 0.26 0.28 0.33 0.34 0.33 0.28 0.24 0.31 0.22 0.19 0.29 0.34 0.28 0.26 0.27 0.23 0.45 0.48 0.45 0.48 0.52 0.50 0.58 0.66 0.67 0.70 0.79 0.89 0.92 0.93
0.69 0.63 0.63 0.70 0.73 0.77 0.76 0.66 0.45 0.35 0.33 0.28 0.20 0.20 0.36 0.24 0.28 0.23 0.27 0.23 0.26 0.28 0.24 0.22 0.21 0.30 0.28 0.26 0.21 0.23 0.27 0.20 0.24 0.22 0.22 0.26 0.22 0.29 0.27 0.27 0.30 0.27 0.26 0.26 0.25 0.30 0.32 0.28 0.32 0.37 0.39 0.40 0.43 0.42 0.37 0.37 0.36 0.31 0.31 0.36 0.27 0.25 0.22 0.26 0.24 0.20 0.21 0.20 0.20 0.27 0.28 0.24 0.28 0.29 0.34 0.40 0.41 0.52 0.55 0.54 0.56 0.61 0.66 0.69 0.77 0.85 0.92 0.96
0.69 0.62 0.66 0.72 0.81 0.79 0.72 0.60 0.40 0.31 0.30 0.24 0.21 0.19 0.27 0.27 0.29 0.23 0.25 0.24 0.23 0.23 0.23 0.23 0.21 0.27 0.32 0.26 0.27 0.25 0.27 0.19 0.23 0.21 0.19 0.25 0.21 0.28 0.27 0.27 0.27 0.29 0.28 0.27 0.20 0.28 0.31 0.27 0.29 0.35 0.37 0.37 0.38 0.37 0.30 0.31 0.34 0.34 0.35 0.32 0.33 0.32 0.30 0.28 0.26 0.23 0.23 0.22 0.21 0.23 0.28 0.22 0.28 0.30 0.31 0.32 0.39 0.49 0.55 0.53 0.56 0.64 0.68 0.70 0.78 0.84 0.90 0.93
0.59 0.58 0.61 0.76 0.82 0.74 0.67 0.50 0.37 0.32 0.30 0.22 0.22 0.22 0.29 0.21 0.22 0.25 0.25 0.21 0.20 0.23 0.23 0.23 0.26 0.25 0.29 0.28 0.30 0.26 0.27 0.23 0.23 0.22 0.19 0.25 0.22 0.30 0.27 0.30 0.28 0.29 0.28 0.28 0.23 0.24 0.26 0.31 0.27 0.32 0.37 0.35 0.31 0.33 0.30 0.31 0.28 0.28 0.27 0.27 0.29 0.28 0.33 0.33 0.33 0.26 0.24 0.23 0.22 0.23 0.22 0.28 0.36 0.42 0.38 0.38 0.46 0.52 0.53 0.57 0.62 0.67 0.71 0.72 0.80 0.84 0.93 0.95
0.62 0.65 0.66 0.86 0.82 0.78 0.67 0.49 0.34 0.29 0.27 0.31 0.31 0.29 0.26 0.20 0.21 0.22 0.23 0.22 0.21 0.27 0.28 0.27 0.28 0.29 0.30 0.28 0.28 0.30 0.28 0.26 0.26 0.23 0.21 0.23 0.22 0.20 0.26 0.29 0.29 0.29 0.30 0.28 0.24 0.25 0.21 0.26 0.27 0.31 0.30 0.30 0.32 0.36 0.35 0.33 0.32 0.30 0.29 0.26 0.28 0.27 0.26 0.22 0.22 0.28 0.25 0.23 0.22 0.23 0.23 0.27 0.38 0.43 0.44 0.46 0.55 0.57 0.59 0.62 0.63 0.66 0.69 0.73 0.83 0.88 0.95 0.96
0.48 0.48 0.61 0.89 0.87 0.81 0.62 0.36 0.33 0.38 0.33 0.29 0.27 0.26 0.24 0.27 0.21 0.22 0.25 0.29 0.26 0.31 0.37 0.31 0.32 0.31 0.31 0.29 0.26 0.30 0.31 0.27 0.26 0.25 0.25 0.22 0.24 0.23 0.29 0.30 0.30 0.31 0.28 0.24 0.22 0.26 0.25 0.26 0.25 0.27 0.28 0.30 0.34 0.36 0.38 0.37 0.35 0.34 0.32 0.29 0.31 0.30 0.30 0.26 0.21 0.27 0.28 0.26 0.29 0.28 0.26 0.27 0.49 0.47 0.46 0.48 0.55 0.56 0.62 0.61 0.64 0.66 0.72 0.78 0.85 0.90 0.95 0.94
0.55 0.59 0.83 0.89 0.92 0.77 0.56 0.43 0.42 0.36 0.30 0.34 0.35 0.26 0.25 0.24 0.26 0.34 0.30 0.35 0.30 0.35 0.35 0.33 0.33 0.31 0.32 0.30 0.32 0.32 0.31 0.30 0.28 0.24 0.26 0.24 0.25 0.25 0.30 0.31 0.31 0.30 0.29 0.28 0.26 0.27 0.26 0.24 0.22 0.25 0.31 0.35 0.36 0.37 0.36 0.35 0.34 0.30 0.31 0.32 0.32 0.28 0.29 0.27 0.26 0.29 0.30 0.34 0.29 0.28 0.25 0.30 0.43 0.53 0.50 0.53 0.55 0.56 0.59 0.62 0.64 0.67 0.73 0.78 0.82 0.88 0.92 0.95
0.54 0.61 0.72 0.88 0.93 0.80 0.50 0.34 0.28 0.29 0.31 0.30 0.24 0.34 0.34 0.35 0.33 0.37 0.34 0.40 0.33 0.33 0.32 0.35 0.35 0.34 0.37 0.41 0.39 0.35 0.37 0.30 0.32 0.29 0.26 0.27 0.26 0.32 0.32 0.32 0.32 0.30 0.27 0.27 0.24 0.29 0.21 0.22 0.23 0.22 0.24 0.28 0.29 0.32 0.30 0.33 0.31 0.29 0.28 0.30 0.30 0.32 0.31 0.30 0.30 0.35 0.28 0.29 0.30 0.27 0.24 0.29 0.52 0.51 0.53 0.53 0.53 0.54 0.55 0.62 0.67 0.67 0.71 0.77 0.84 0.91 0.95 0.99
0.59 0.65 0.74 0.78 0.85 0.73 0.49 0.48 0.35 0.29 0.28 0.28 0.34 0.32 0.35 0.35 0.40 0.48 0.46 0.46 0.45 0.41 0.41 0.36 0.35 0.39 0.39 0.45 0.42 0.41 0.40 0.37 0.36 0.34 0.35 0.33 0.32 0.36 0.35 0.34 0.34 0.31 0.31 0.32 0.29 0.34 0.21 0.22 0.20 0.20 0.19 0.19 0.20 0.22 0.24 0.26 0.27 0.28 0.29 0.30 0.31 0.30 0.30 0.30 0.25 0.26 0.22 0.26 0.29 0.26 0.25 0.32 0.47 0.47 0.49 0.51 0.52 0.53 0.58 0.63 0.68 0.73 0.78 0.81 0.86 0.90 0.93 0.97
0.56 0.49 0.62 0.68 0.70 0.65 0.57 0.56 0.50 0.40 0.34 0.35 0.30 0.39 0.38 0.40 0.45 0.51 0.49 0.47 0.49 0.46 0.45 0.48 0.46 0.45 0.45 0.47 0.44 0.42 0.41 0.42 0.38 0.39 0.34 0.35 0.35 0.38 0.39 0.37 0.35 0.33 0.33 0.33 0.34 0.33 0.24 0.25 0.26 0.20 0.22 0.24 0.27 0.29 0.32 0.34 0.34 0.27 0.28 0.29 0.30 0.30 0.31 0.30 0.28 0.27 0.25 0.38 0.32 0.31 0.31 0.34 0.39 0.45 0.45 0.51 0.50 0.49 0.54 0.57 0.63 0.70 0.76 0.84 0.89 0.92 0.94 0.97
0.64 0.59 0.57 0.54 0.62 0.61 0.58 0.57 0.50 0.46 0.45 0.44 0.40 0.42 0.35 0.41 0.48 0.46 0.55 0.47 0.47 0.48 0.49 0.47 0.44 0.43 0.50 0.49 0.48 0.45 0.45 0.43 0.42 0.41 0.41 0.38 0.42 0.43 0.45 0.43 0.37 0.35 0.37 0.35 0.37 0.34 0.27 0.24 0.27 0.25 0.22 0.26 0.30 0.30 0.36 0.38 0.33 0.32 0.29 0.27 0.27 0.29 0.29 0.29 0.27 0.27 0.36 0.38 0.30 0.35 0.43 0.37 0.36 0.39 0.43 0.47 0.51 0.51 0.53 0.61 0.66 0.72 0.78 0.82 0.87 0.91 0.93 0.98
0.58 0.65 0.68 0.78 0.60 0.50 0.50 0.51 0.54 0.51 0.51 0.46 0.44 0.41 0.40 0.41 0.44 0.44 0.51 0.54 0.54 0.53 0.49 0.46 0.46 0.50 0.53 0.52 0.51 0.44 0.45 0.46 0.46 0.40 0.45 0.46 0.43 0.45 0.43 0.44 0.42 0.42 0.39 0.35 0.39 0.34 0.30 0.25 0.27 0.25 0.24 0.25 0.29 0.38 0.38 0.35 0.34 0.35 0.32 0.30 0.28 0.29 0.30 0.29 0.30 0.33 0.41 0.34 0.32 0.43 0.44 0.36 0.37 0.38 0.41 0.47 0.58 0.61 0.63 0.68 0.72 0.77 0.80 0.84 0.86 0.88 0.90 0.94
0.72 0.70 0.69 0.78 0.63 0.66 0.61 0.63 0.56 0.53 0.51 0.49 0.48 0.43 0.40 0.41 0.44 0.48 0.50 0.49 0.51 0.52 0.53 0.47 0.49 0.53 0.53 0.56 0.52 0.49 0.51 0.44 0.43 0.51 0.47 0.47 0.45 0.43 0.40 0.43 0.45 0.45 0.41 0.35 0.37 0.37 0.31 0.26 0.27 0.26 0.25 0.25 0.26 0.30 0.33 0.33 0.36 0.35 0.36 0.33 0.34 0.33 0.33 0.34 0.35 0.43 0.41 0.42 0.45 0.43 0.42 0.37 0.39 0.41 0.49 0.56 0.54 0.54 0.59 0.66 0.69 0.67 0.71 0.78 0.83 0.89 0.92 0.95
0.59 0.64 0.63 0.72 0.68 0.68 0.70 0.64 0.59 0.53 0.48 0.54 0.43 0.46 0.44 0.43 0.43 0.49 0.54 0.51 0.47 0.52 0.57 0.51 0.50 0.53 0.55 0.57 0.55 0.50 0.53 0.55 0.53 0.49 0.52 0.50 0.50 0.47 0.43 0.44 0.47 0.46 0.43 0.37 0.37 0.45 0.32 0.28 0.28 0.30 0.25 0.23 0.26 0.28 0.30 0.34 0.36 0.35 0.36 0.37 0.36 0.37 0.36 0.37 0.41 0.43 0.42 0.41 0.40 0.37 0.36 0.37 0.49 0.48 0.49 0.54 0.57 0.60 0.63 0.62 0.66 0.72 0.76 0.80 0.83 0.88 0.95 0.99
0.75 0.78 0.77 0.67 0.60 0.68 0.68 0.64 0.56 0.54 0.47 0.50 0.44 0.52 0.44 0.46 0.44 0.50 0.53 0.58 0.55 0.55 0.53 0.50 0.54 0.56 0.59 0.59 0.58 0.55 0.59 0.58 0.57 0.57 0.57 0.52 0.47 0.52 0.45 0.48 0.46 0.49 0.43 0.39 0.39 0.42 0.33 0.39 0.36 0.29 0.23 0.22 0.25 0.27 0.28 0.31 0.34 0.35 0.35 0.36 0.36 0.36 0.35 0.39 0.37 0.42 0.37 0.38 0.40 0.38 0.35 0.37 0.65 0.54 0.55 0.59 0.56 0.59 0.63 0.66 0.71 0.76 0.79 0.84 0.86 0.91 0.96 1.01
0.83 0.85 0.82 0.73 0.62 0.66 0.61 0.62 0.61 0.53 0.45 0.54 0.52 0.51 0.47 0.46 0.47 0.51 0.49 0.58 0.60 0.60 0.59 0.56 0.58 0.57 0.57 0.59 0.59 0.59 0.63 0.64 0.63 0.64 0.64 0.61 0.58 0.58 0.56 0.52 0.51 0.47 0.48 0.41 0.40 0.37 0.33 0.35 0.32 0.27 0.22 0.21 0.25 0.28 0.28 0.31 0.32 0.30 0.33 0.36 0.38 0.38 0.37 0.40 0.53 0.46 0.43 0.44 0.41 0.36 0.38 0.54 0.52 0.54 0.51 0.58 0.58 0.63 0.70 0.71 0.76 0.79 0.83 0.88 0.92 0.94 0.98 1.03
Wind_Speed
13 14 14 14 14 14 14 14 14 14 14 14 14 14 13 12 11 11 10 10 9 9 9 9 9 8 8 8 7 7 7 6 4 1 1 3 5 7 9 10 12 13 12 12 11 10 10 8 7 7 5 4 3 3 4 3 4 3 3 4 5 5 6 7 8 9 9 10 12 12 11 10 10 10 10 10 10 10 9 9 8 7 7 7 9 11 13 14
14 14 14 14 14 14 14 14 14 14 14 14 14 14 14 13 12 11 10 10 9 9 9 9 8 8 7 7 6 6 6 5 3 0 2 4 6 9 10 11 13 13 12 12 11 10 10 8 8 7 5 4 3 4 4 4 4 4 4 4 5 5 6 7 8 9 8 9 12 11 11 10 9 10 9 9 10 10 9 8 8 8 8 9 11 13 14 14
15 15 15 15 15 15 15 14 14 14 14 14 14 14 14 13 13 12 11 10 9 9 8 9 8 8 7 6 5 5 5 3 2 1 4 6 8 10 11 12 13 13 11 10 10 10 8 8 8 7 4 3 4 4 4 4 4 3 4 4 5 5 6 8 8 9 9 9 11 11 11 10 9 10 9 9 10 10 9 8 9 9 10 11 13 13 14 14
16 16 15 15 15 15 15 15 14 14 14 13 13 13 13 13 13 12 12 10 9 9 8 8 8 7 6 5 5 4 3 2 1 3 6 8 9 11 11 12 12 12 10 9 9 8 6 7 7 5 4 4 4 5 4 4 4 4 4 4 4 5 5 7 8 8 9 9 10 11 11 10 10 10 9 8 9 8 8 8 8 10 11 12 13 14 14 13
16 16 16 16 16 15 15 15 15 14 14 13 13 13 13 13 13 12 12 11 10 9 8 8 8 7 6 5 4 3 2 1 1 3 6 8 9 11 11 11 12 12 10 9 8 7 6 6 6 4 4 4 5 4 4 5 4 4 4 3 3 4 4 6 7 8 9 9 10 11 10 10 10 10 9 8 8 7 7 8 8 10 12 13 14 14 14 13
17 17 16 16 16 15 15 15 15 14 14 13 13 13 13 13 13 13 12 11 10 10 9 8 8 7 6 5 4 3 3 1 2 4 7 9 9 11 11 11 12 12 10 8 8 7 6 6 6 5 4 4 4 4 4 5 4 4 4 3 3 4 4 6 8 8 8 9 10 10 9 9 10 9 9 8 7 7 7 8 9 10 12 13 14 14 14 14
17 17 17 17 16 16 15 15 15 15 14 14 13 13 13 13 13 13 12 11 11 10 9 8 8 7 6 5 4 5 4 1 3 5 8 9 10 11 11 12 12 12 10 9 8 8 7 7 6 4 4 3 4 4 4 5 5 4 4 4 4 4 5 6 7 7 7 8 9 9 9 9 9 8 8 8 8 7 7 7 9 10 11 13 14 14 14 14
18 17 17 17 17 16 16 16 15 15 14 14 14 13 13 13 13 13 13 12 11 10 10 9 8 7 6 5 5 6 5 2 4 6 9 10 11 12 12 12 12 12 11 10 9 7 6 6 4 3 3 3 4 4 5 5 5 4 4 5 5 5 6 6 7 7 7 8 8 9 9 8 8 8 7 8 8 7 7 8 9 10 11 13 14 14 13 14
18 18 18 17 17 17 16 16 16 15 15 14 14 14 14 14 14 13 13 13 12 11 10 9 8 7 7 7 7 6 5 4 5 8 10 11 12 13 12 12 12 12 11 10 8 7 6 4 3 3 2 2 3 4 4 4 4 5 5 6 6 6 6 6 7 7 7 7 7 8 8 8 8 7 7 8 8 7 7 8 9 10 11 12 14 14 14 13
19 19 18 18 18 17 17 16 16 16 15 15 14 14 14 14 14 14 14 13 13 11 10 10 9 8 7 7 8 7 6 5 6 10 11 12 13 13 13 11 12 12 11 10 8 7 6 4 3 2 1 2 2 3 4 4 5 6 6 6 6 6 6 6 6 7 7 7 6 6 6 6 7 7 6 7 8 8 8 9 9 10 11 12 13 14 14 13
20 20 19 19 18 18 18 17 17 16 16 16 15 14 14 14 14 14 14 14 13 12 11 10 9 9 9 9 9 8 7 7 7 10 12 13 13 14 13 11 12 12 11 10 8 7 5 3 2 1 2 2 1 3 5 5 5 7 7 7 7 6 6 6 6 6 6 6 6 6 6 6 6 7 6 6 8 8 8 9 10 10 10 11 13 13 13 13
20 20 19 19 19 18 18 18 17 17 17 16 16 15 14 14 14 14 15 14 14 13 12 11 10 10 10 10 11 9 8 8 8 11 13 13 13 13 12 12 12 11 10 9 8 7 5 4 3 2 2 1 1 3 5 5 5 6 6 5 6 6 5 6 6 6 5 6 6 6 6 6 6 6 6 7 7 8 9 9 10 10 10 11 12 13 13 13
20 20 19 19 19 18 18 18 17 17 17 17 16 15 15 14 14 14 15 15 15 14 13 12 11 11 11 11 10 10 11 10 10 12 14 14 13 12 12 12 12 11 10 9 8 7 6 4 4 3 2 1 1 3 3 4 5 5 4 4 4 5 5 5 6 6 6 6 7 6 5 6 6 6 6 7 8 8 9 9 9 10 10 10 11 12 13 13
20 20 20 19 19 18 18 18 17 17 17 17 17 16 15 14 14 14 15 15 15 15 15 13 12 12 12 11 10 11 12 12 12 13 14 15 14 13 13 12 12 11 10 9 8 7 6 5 4 4 3 3 2 2 3 4 4 4 3 3 3 3 4 5 6 7 7 7 7 6 6 6 6 7 7 7 8 9 8 8 9 10 10 10 11 11 12 13
20 20 20 19 19 18 18 18 17 17 17 17 16 15 15 14 14 14 14 15 15 16 15 15 14 13 13 13 12 12 13 13 14 15 15 16 16 14 14 14 13 11 10 10 9 8 7 5 5 5 4 3 3 2 3 4 4 3 3 3 3 3 5 5 6 7 7 7 7 6 6 7 7 7 7 7 8 8 8 8 9 10 10 10 11 11 11 12
19 19 19 19 19 19 18 18 17 17 17 16 16 15 14 14 13 13 14 14 15 15 15 16 15 15 14 13 13 12 13 14 15 15 16 16 16 14 14 14 13 12 11 10 10 9 8 6 6 5 4 4 4 3 3 4 4 4 2 3 3 2 4 6 6 6 6 7 7 6 5 6 7 7 8 7 8 8 8 8 9 9 10 10 10 11 11 11
18 19 18 18 18 18 18 18 17 17 16 16 15 14 14 13 13 13 13 14 15 15 16 16 16 16 15 14 14 14 14 14 14 16 16 17 16 14 14 14 13 13 12 11 11 10 9 8 6 6 6 5 4 3 3 4 4 3 2 2 2 2 3 5 6 6 7 7 7 6 5 6 7 8 8 8 8 8 8 9 9 9 9 10 10 10 11 11
18 18 18 18 18 17 17 17 16 16 15 15 14 14 13 13 13 13 13 14 14 15 16 17 17 16 17 16 15 14 14 14 15 16 17 17 16 15 15 14 13 14 13 12 12 12 11 9 8 7 7 6 5 4 4 3 2 1 1 1 2 2 3 4 5 7 8 7 6 7 6 6 7 8 8 8 8 8 8 8 9 9 9 9 9 10 10 10
18 18 18 18 17 17 17 16 16 15 14 13 13 12 12 13 13 13 14 14 15 16 15 16 19 17 15 16 16 14 14 14 15 17 18 18 16 15 15 14 14 15 13 12 13 13 12 10 9 8 7 7 5 5 4 1 1 1 0 1 0 2 3 4 6 7 8 7 6 7 6 6 8 8 8 8 8 7 8 8 8 9 9 9 9 9 9 9
19 18 18 17 17 17 17 16 16 15 14 12 12 12 12 13 13 13 14 15 17 18 17 17 20 19 16 15 15 15 15 15 16 18 19 19 17 16 15 15 15 15 14 13 13 13 12 11 11 10 8 7 5 5 4 3 2 2 2 2 2 2 4 5 7 7 7 6 6 7 6 6 7 7 7 7 8 7 7 8 8 8 9 9 9 9 9 9
19 19 18 17 17 17 17 16 16 15 14 12 12 12 12 12 13 12 13 16 17 19 20 19 20 21 19 16 15 15 15 16 18 18 19 19 18 17 16 16 15 15 15 14 12 12 13 13 12 11 9 7 6 5 4 4 4 4 3 2 3 3 5 6 7 8 7 6 6 7 5 5 6 6 7 7 7 7 7 8 8 8 8 8 8 8 9 8
20 19 18 18 17 17 17 16 16 15 13 12 12 13 12 12 12 13 13 15 17 18 20 21 21 22 22 20 18 17 16 17 18 19 20 20 20 18 16 17 16 15 15 15 14 13 14 14 13 12 10 9 8 6 5 5 5 5 4 3 3 4 6 7 7 8 8 6 6 6 5 5 6 6 7 7 7 7 7 7 7 7 8 8 8 8 8 8
19 19 19 18 17 17 17 17 16 14 13 12 13 13 13 12 12 13 14 15 16 17 19 21 22 22 23 22 21 20 19 18 19 20 21 21 21 19 17 17 16 16 16 17 16 15 14 13 13 12 11 10 9 8 6 6 6 5 5 4 4 5 6 7 8 8 8 6 5 5 4 4 5 6 6 7 7 7 7 7 6 7 7 7 7 7 7 7
19 19 19 18 18 17 17 17 15 13 12 13 14 14 13 12 12 13 14 15 15 15 17 19 21 22 23 22 21 22 21 20 19 20 22 22 21 19 18 18 17 17 17 17 18 17 14 12 12 11 11 12 10 9 8 7 6 6 5 5 4 5 6 6 8 9 8 7 6 5 4 4 6 6 6 7 8 7 7 7 7 7 7 6 6 6 6 6
19 19 19 18 18 17 17 16 13 12 13 14 14 14 13 12 12 12 13 14 14 14 15 17 19 21 22 21 21 22 21 21 21 20 22 23 21 19 18 17 17 17 18 19 18 18 16 14 14 13 11 12 12 10 9 8 6 5 5 4 4 5 7 7 9 9 7 7 7 6 5 4 6 7 6 7 8 8 7 7 7 7 7 6 6 6 6 6
19 18 18 18 17 17 16 13 12 13 14 13 12 12 12 12 12 12 12 13 13 13 13 15 17 19 22 22 22 21 20 21 22 20 22 23 21 19 17 17 17 17 18 18 17 16 16 16 16 15 13 13 13 12 11 9 7 6 4 4 5 6 8 9 10 9 6 6 7 7 5 4 5 6 7 7 7 8 8 8 8 8 7 7 6 6 6 6
19 18 18 18 17 16 14 13 13 14 14 12 11 12 12 12 11 11 12 13 13 12 12 14 16 18 20 22 24 22 18 18 21 22 22 23 22 20 18 17 17 17 15 15 16 15 17 18 17 17 15 14 14 12 11 10 8 5 3 4 5 6 9 10 10 9 6 5 6 7 5 4 5 6 7 8 8 8 9 9 9 8 8 8 7 7 7 6
18 18 18 17 17 16 15 15 14 14 13 12 12 12 12 11 11 11 12 12 11 11 12 13 15 17 19 21 25 23 17 16 20 22 23 23 22 20 20 19 18 18 17 16 16 14 17 20 19 18 17 15 15 12 10 10 9 6 4 5 6 7 9 10 10 8 6 6 7 7 6 5 5 5 6 7 8 9 10 10 10 9 9 9 8 8 8 7
18 18 17 17 17 16 16 15 15 14 13 12 12 12 12 11 11 11 12 12 10 11 11 12 15 17 19 21 25 24 19 17 18 20 23 24 22 20 19 19 19 19 19 19 17 14 15 18 18 18 18 15 14 12 11 10 9 7 6 7 7 8 10 10 9 7 7 8 7 8 8 6 5 6 6 7 7 9 9 10 10 10 10 9 9 8 8 8
18 18 17 17 16 15 15 15 15 15 14 13 13 12 12 11 11 12 13 11 10 10 11 13 15 17 20 21 24 25 22 18 17 19 22 23 22 21 18 18 19 19 18 19 19 15 14 15 16 17 17 14 12 12 12 11 10 8 8 8 8 9 10 9 8 7 8 8 7 7 8 7 5 5 5 5 6 6 7 8 10 11 11 11 10 9 9 9
18 18 17 16 15 15 15 14 14 13 13 13 12 12 12 12 12 13 12 11 10 10 11 13 14 16 20 21 22 24 23 19 18 21 22 22 22 22 19 18 19 19 18 19 20 19 18 17 16 17 17 15 14 14 13 12 12 10 10 10 9 9 10 9 8 9 9 8 6 6 7 8 7 6 5 5 5 5 5 6 9 11 13 12 11 11 10 9
18 18 17 17 16 16 16 15 13 12 13 12 12 13 12 12 13 13 11 10 11 11 11 13 13 15 19 21 22 24 23 20 20 21 22 22 21 21 21 20 19 19 19 18 19 20 20 20 19 18 18 17 16 14 13 12 12 12 11 12 12 10 10 11 10 9 9 7 6 6 7 8 9 8 7 7 7 6 6 6 7 10 12 13 12 12 10 10
18 17 17 16 16 16 17 16 15 15 14 13 13 13 13 13 13 13 12 11 10 10 11 12 13 14 17 20 21 23 24 21 20 22 22 22 22 21 22 22 21 21 18 18 19 18 18 20 21 20 19 19 18 15 13 12 12 13 12 12 13 11 11 12 11 10 9 7 6 7 7 9 10 9 8 8 7 7 7 7 8 9 11 13 13 13 11 11
17 16 15 15 15 16 16 16 16 16 15 14 14 14 15 15 12 11 13 13 10 10 12 11 12 14 17 20 20 23 23 21 21 22 22 22 22 21 23 23 23 22 18 18 19 19 18 18 22 22 19 20 20 18 14 11 11 13 13 13 13 12 12 11 10 11 10 7 7 8 8 9 9 8 8 6 6 7 8 8 9 10 11 12 13 14 13 12
16 15 14 14 14 15 15 15 16 16 15 15 15 15 16 15 12 11 12 12 11 11 12 11 12 15 18 19 20 23 24 21 21 22 21 22 22 21 22 22 23 23 20 18 17 19 19 17 19 22 20 19 21 20 17 13 12 13 13 13 13 12 12 10 9 9 8 7 8 9 9 9 9 9 10 9 8 9 10 9 10 11 11 12 13 15 14 13
14 13 13 13 13 14 14 15 16 16 16 16 16 16 16 14 12 11 11 11 11 11 11 12 13 14 17 19 19 23 24 21 21 22 21 22 23 22 22 21 23 24 22 19 16 18 19 17 17 19 20 20 20 19 19 16 12 12 13 14 13 11 11 11 10 9 10 10 9 9 10 10 10 11 12 10 10 11 11 11 11 11 12 12 13 15 15 13
12 12 12 12 12 13 14 15 16 16 16 16 17 16 15 14 13 11 11 11 12 11 11 11 12 13 15 18 19 22 23 22 22 22 20 21 22 22 23 21 22 25 24 21 17 16 18 18 18 20 20 21 19 17 18 18 14 11 12 13 13 12 12 12 11 9 11 11 9 9 11 11 9 9 9 10 10 10 10 11 11 11 12 13 14 15 15 14
12 12 12 11 12 13 14 15 16 16 16 16 17 17 15 14 14 13 13 12 12 12 12 11 11 11 13 16 18 22 23 22 22 22 20 20 20 21 23 22 21 24 25 23 19 16 17 18 18 21 21 19 19 19 18 18 18 15 12 11 12 13 13 13 13 11 11 11 10 10 11 11 11 10 10 11 11 10 10 11 11 11 12 13 14 14 15 14
11 11 10 10 11 12 14 15 15 16 16 16 17 17 16 16 15 15 15 14 14 13 13 12 11 12 13 14 16 19 22 22 22 22 21 19 19 20 22 22 21 23 25 25 21 17 19 19 17 20 21 19 19 21 20 18 19 18 15 14 14 13 12 12 13 13 11 11 11 11 10 11 11 11 11 12 11 10 10 10 11 11 11 12 13 14 14 14
11 11 9 8 9 11 13 14 14 15 15 15 16 15 15 16 16 16 15 15 15 14 13 12 12 13 13 13 14 17 20 22 21 21 21 20 19 18 20 22 21 22 24 25 24 20 20 20 18 17 21 21 20 21 22 19 18 18 19 18 16 15 13 12 12 13 12 11 11 10 11 10 8 8 10 11 10 10 10 9 10 11 11 11 12 13 13 13
10 10 9 9 10 11 12 13 14 15 15 14 15 15 15 16 15 15 15 16 16 16 15 13 13 14 13 13 14 15 18 20 20 20 21 21 20 18 19 22 21 21 23 24 24 22 20 21 21 18 19 23 22 20 21 20 17 17 18 19 18 17 15 14 13 13 13 13 12 11 11 10 7 7 9 10 9 9 9 10 10 10 11 10 11 12 12 13
10 9 9 11 12 11 12 13 13 14 14 13 14 15 15 15 15 15 15 16 17 16 16 15 15 15 14 14 14 14 16 19 20 20 20 21 21 19 19 21 22 21 22 22 23 23 20 19 22 21 19 21 21 18 18 18 17 18 17 18 18 18 18 16 14 13 13 13 12 12 13 11 8 8 9 8 8 8 9 9 9 10 10 10 10 11 12 13
9 8 9 11 12 12 12 12 13 14 14 13 13 14 15 15 16 15 15 16 16 16 16 16 15 16 15 15 15 15 16 17 19 20 19 19 21 20 19 21 22 21 21 21 22 23 22 20 21 21 19 19 20 17 17 18 19 20 20 19 19 18 18 17 14 13 12 12 12 12 13 12 9 8 9 8 8 8 9 9 9 10 10 10 10 11 11 12
7 8 10 11 12 12 12 11 12 13 13 12 13 14 15 15 15 15 15 16 16 16 16 15 16 16 15 15 15 15 16 15 17 19 18 18 18 18 20 22 22 21 21 21 21 21 21 21 21 21 20 20 20 19 19 19 19 20 20 22 22 21 19 17 15 13 14 14 15 14 13 11 9 8 9 9 9 9 9 9 10 11 11 11 11 11 12 12
7 8 10 11 12 12 12 10 11 12 13 13 13 13 14 14 15 15 15 15 16 17 16 15 15 15 15 15 15 16 16 15 15 16 16 17 16 16 19 22 23 23 21 21 21 21 21 22 22 22 21 21 21 20 19 19 20 20 21 22 23 24 22 18 16 16 16 15 15 16 14 11 9 9 9 10 10 10 10 11 11 11 12 12 12 12 13 14
7 8 10 12 12 13 12 11 11 11 12 12 12 13 13 13 13 14 15 15 15 17 17 16 15 15 15 16 16 16 17 17 16 15 15 16 16 15 17 20 22 24 23 22 22 21 21 22 23 24 23 21 20 20 18 17 18 20 22 22 22 24 23 20 18 17 16 14 15 16 15 13 11 10 10 11 12 12 12 12 12 12 12 13 13 13 14 15
7 8 9 11 12 12 12 12 12 12 11 11 11 11 13 13 12 13 14 14 14 15 16 16 16 15 14 15 15 15 16 17 16 15 15 15 15 15 16 17 20 22 21 22 23 22 21 22 24 26 26 23 20 18 17 18 18 19 21 23 23 23 24 23 21 18 16 15 15 14 13 14 14 12 13 13 13 13 12 12 12 12 13 13 14 14 15 15
6 7 9 10 11 12 12 12 13 12 12 12 11 11 13 13 12 12 13 14 14 14 15 16 16 14 13 14 15 14 14 16 16 15 14 13 14 15 15 16 18 20 20 22 24 22 21 22 23 24 26 26 23 18 17 18 18 18 20 21 23 23 23 23 22 19 17 17 15 12 12 14 14 13 13 11 11 12 13 12 12 13 14 14 14 15 15 15
5 7 8 10 11 11 11 11 12 13 13 12 12 12 13 13 12 12 12 13 14 14 13 14 15 13 13 14 15 13 12 14 14 13 12 11 12 14 15 15 16 18 21 23 23 23 21 21 22 22 23 26 25 22 19 18 18 18 18 19 21 22 22 22 20 17 16 15 13 11 12 13 13 12 12 11 12 14 13 13 14 15 15 15 15 16 15 15
5 7 8 10 12 12 11 12 13 13 13 13 12 12 13 13 12 12 13 14 14 13 12 12 12 12 12 14 14 13 12 11 13 13 12 11 11 12 14 14 14 17 20 22 21 22 22 20 21 21 21 23 25 24 22 20 18 18 18 17 19 20 20 20 18 16 16 15 13 12 13 14 12 12 13 13 14 14 14 15 15 16 16 16 15 15 14 14
5 7 8 10 12 12 12 12 13 13 13 13 13 12 13 14 12 12 14 15 14 13 12 11 12 13 13 13 14 13 12 12 13 13 13 13 12 12 13 14 14 16 19 21 21 22 22 20 19 20 21 22 23 24 24 22 19 20 20 19 19 19 19 18 17 16 16 15 14 14 15 14 12 13 14 14 14 15 15 15 15 15 15 15 14 14 14 14
6 7 8 10 11 12 12 12 13 14 13 12 12 12 12 13 12 12 14 15 15 14 12 11 13 14 14 14 13 12 13 15 15 14 14 14 14 14 14 16 17 17 18 20 20 21 23 21 18 20 20 21 22 24 23 21 20 21 21 20 20 20 19 18 16 16 16 15 14 14 14 13 13 14 15 14 14 14 15 15 14 14 13 14 14 13 13 13
Wind_Direction
320 319 318 316 313 310 307 303 300 296 290 283 278 275 275 276 278 281 284 286 290 296 302 305 306 311 320 327 332 337 342 345 359 48 138 130 132 143 145 145 147 147 145 142 140 136 133 135 132 129 121 112 111 112 112 108 106 103 120 134 130 136 146 150 156 152 144 155 160 159 165 164 156 155 157 161 158 155 155 154 156 153 148 151 151 150 154 158
319 318 318 318 316 313 310 306 301 297 293 286 279 275 272 272 273 275 279 282 286 290 296 300 302 306 314 324 328 334 342 341 349 21 159 128 131 145 144 145 147 148 148 146 148 142 137 138 136 134 124 104 99 104 103 107 106 91 94 117 132 137 142 153 167 164 154 156 160 163 167 164 158 156 160 165 160 159 157 152 155 149 147 151 150 152 156 159
317 317 317 317 316 314 312 309 304 299 294 289 282 276 271 270 269 270 273 277 281 285 290 296 297 300 308 317 320 328 333 328 347 100 152 141 141 147 145 147 148 149 149 147 150 145 133 132 136 131 113 92 90 100 101 108 110 98 102 109 135 154 154 165 176 171 162 159 164 168 168 165 162 161 164 167 163 166 166 160 162 158 156 157 155 156 158 162
314 314 314 314 315 314 313 310 306 301 296 290 284 277 272 268 267 266 268 271 275 279 283 290 293 293 300 307 310 315 311 307 31 111 144 144 145 148 148 148 148 150 149 144 147 140 120 119 129 123 102 86 85 96 97 109 111 103 119 111 129 157 156 160 165 164 164 163 167 168 167 166 165 167 169 169 167 169 169 166 168 165 163 162 161 161 162 165
310 311 312 311 311 312 312 311 308 303 298 292 285 279 273 267 265 264 264 266 269 274 277 284 288 287 289 295 297 287 284 293 105 132 150 150 148 151 151 150 150 151 148 144 144 136 119 115 121 119 101 85 80 88 86 108 114 98 126 129 116 140 140 145 148 153 161 162 167 168 167 166 166 171 174 175 171 169 172 171 170 168 168 168 166 164 165 167
309 308 309 309 309 309 310 310 309 305 300 293 286 280 274 268 264 262 262 263 263 267 270 276 282 280 279 282 271 239 264 292 154 159 157 157 154 153 153 153 154 153 149 145 144 141 134 128 126 118 98 79 76 78 71 96 112 88 105 121 112 128 134 142 144 147 156 159 163 167 167 167 172 175 176 178 168 165 177 176 170 171 172 171 169 170 169 168
307 306 306 306 306 306 307 308 308 306 301 295 288 281 275 268 263 259 259 259 260 262 264 269 273 273 272 266 245 228 249 245 168 173 164 165 163 158 155 155 156 155 156 155 153 150 143 139 132 109 86 78 75 72 68 89 108 90 76 89 106 124 130 134 139 144 150 152 157 164 167 171 178 176 175 180 171 166 176 173 169 171 173 174 174 175 174 172
305 305 304 304 304 303 303 304 305 304 301 296 289 281 275 269 262 257 256 256 257 257 258 262 264 268 263 249 238 232 232 201 176 179 169 169 168 163 157 157 159 160 164 166 163 158 150 146 138 114 94 84 70 67 80 95 106 97 77 81 99 117 125 129 133 137 139 144 152 161 166 171 177 177 177 182 177 174 175 169 169 171 173 177 179 178 177 177
302 302 302 302 301 301 300 300 300 301 300 296 291 283 275 268 262 256 253 252 253 253 253 254 256 260 255 241 239 233 220 205 193 181 173 172 171 168 165 163 164 165 168 171 170 165 158 153 144 127 97 81 71 67 82 95 96 97 91 88 98 109 120 127 128 133 134 140 150 156 163 170 174 180 188 188 179 176 177 171 170 173 175 180 184 182 179 180
300 300 300 300 299 298 297 297 297 297 297 295 291 284 275 267 261 255 251 249 248 249 249 248 250 252 248 238 233 225 211 208 194 181 178 176 174 173 174 173 169 169 171 174 178 176 172 169 147 130 110 95 85 78 78 81 89 100 99 93 99 106 113 121 124 131 132 135 147 152 156 163 169 180 188 184 178 178 180 175 172 176 177 179 184 184 182 182
298 297 297 298 297 297 296 294 294 293 293 292 289 284 275 267 260 254 249 246 244 244 245 245 244 243 243 237 232 224 208 204 192 184 184 180 179 180 182 181 177 178 179 179 185 188 191 189 165 157 144 108 78 96 85 80 98 106 103 96 100 106 112 120 124 131 133 134 143 146 147 154 166 179 178 167 172 178 176 174 174 177 177 177 180 183 183 183
296 296 296 296 296 296 294 293 292 291 290 290 287 283 275 267 259 253 248 244 241 240 240 241 240 238 240 237 232 226 211 204 195 190 189 187 187 189 190 190 187 187 186 187 191 193 199 200 197 205 175 114 75 115 95 89 109 112 105 100 107 112 115 121 126 132 134 132 138 141 141 151 163 170 168 159 164 171 170 171 174 175 175 175 176 179 182 183
296 295 295 295 295 295 294 293 291 289 289 288 286 281 273 266 258 252 247 242 239 237 236 238 237 236 237 233 227 223 215 210 203 195 194 194 194 197 199 198 195 194 193 196 194 192 200 200 206 217 206 192 121 114 110 107 114 116 105 98 113 122 124 125 127 132 128 123 135 139 124 132 152 154 152 154 158 164 166 169 172 173 173 173 174 177 180 182
295 295 294 294 294 294 294 292 291 289 288 287 284 278 271 265 257 250 245 241 238 235 234 234 234 234 233 230 227 223 218 212 208 202 198 197 198 201 202 199 198 199 200 199 192 192 198 196 208 220 210 193 153 127 144 129 115 119 114 106 108 109 124 133 135 137 129 121 136 140 111 112 133 140 141 146 152 159 162 164 167 169 171 171 173 176 178 183
295 294 293 292 292 292 292 292 291 289 287 286 282 275 268 262 256 248 242 239 237 234 231 231 232 233 233 231 227 223 217 213 212 207 202 200 201 202 202 200 200 202 202 199 194 195 197 200 212 217 205 190 188 180 157 135 119 121 119 112 101 96 122 133 143 148 134 124 139 141 111 107 119 132 140 142 146 154 156 157 161 164 167 169 171 174 177 180
296 295 293 292 291 291 291 291 290 289 287 284 279 272 264 259 253 246 241 237 235 232 229 229 228 229 232 228 221 219 216 214 213 208 205 203 203 204 201 200 202 204 206 203 201 200 200 209 218 217 214 199 191 183 161 153 138 126 108 98 93 96 124 134 146 155 139 128 140 143 116 106 113 128 138 138 142 150 150 151 156 159 163 166 168 171 173 176
297 296 295 293 292 291 290 289 289 289 287 282 277 268 260 255 248 244 241 236 234 232 230 229 226 227 231 225 219 219 215 212 211 208 205 204 207 206 200 200 204 204 207 208 208 207 205 210 213 207 205 197 188 179 164 160 147 129 106 106 111 106 127 141 148 154 149 142 143 144 132 114 113 123 134 136 139 144 144 146 151 154 158 161 164 168 171 173
296 296 295 294 293 292 290 289 289 289 286 280 273 263 257 251 245 244 240 236 234 232 232 229 223 225 227 221 219 217 213 212 209 207 205 203 207 207 201 203 205 202 207 212 210 209 207 208 209 205 201 196 190 186 174 154 146 135 91 107 130 137 142 142 143 150 155 153 147 144 139 130 126 126 129 133 137 140 141 142 144 149 154 156 161 165 169 173
295 295 295 293 292 291 290 289 288 288 285 277 268 259 253 248 245 244 240 236 232 231 232 223 217 223 224 218 217 216 214 212 207 205 203 202 204 205 205 206 205 203 207 211 209 209 208 205 206 209 206 197 188 191 200 194 199 245 237 196 178 151 148 138 137 147 152 151 151 150 141 134 136 136 133 133 136 138 138 139 140 143 148 153 159 163 167 173
293 293 293 292 291 290 289 287 286 286 281 270 263 255 251 247 245 241 236 237 235 235 237 225 218 225 224 216 215 215 213 210 208 205 202 201 201 202 205 205 205 207 208 209 209 206 208 209 207 207 205 198 194 199 211 218 212 223 222 204 193 169 151 142 142 146 151 150 148 150 147 138 137 139 141 138 138 141 141 141 141 143 145 149 156 160 164 172
291 291 290 290 289 288 288 286 284 284 274 262 259 255 254 255 250 245 242 241 238 237 237 230 224 226 224 218 216 215 213 211 209 206 202 200 200 201 203 204 207 210 209 210 209 204 207 212 210 210 210 205 206 207 207 212 211 211 216 205 187 172 149 145 147 148 153 155 143 142 150 151 148 146 146 145 144 147 148 148 147 148 150 151 156 160 162 168
290 289 288 288 287 287 287 285 283 280 266 255 256 254 255 257 251 251 251 247 242 236 234 231 227 226 224 223 220 217 218 215 209 205 202 200 202 203 203 205 210 211 208 208 211 210 212 216 215 212 211 208 209 210 205 209 214 207 201 195 177 162 156 155 156 153 156 156 140 141 152 150 152 156 154 153 155 154 155 158 156 154 156 158 161 164 167 172
289 288 286 285 285 285 285 284 281 272 255 253 257 253 253 253 251 253 250 250 248 236 231 228 224 222 221 221 219 216 217 216 209 204 202 202 205 205 205 206 209 211 208 208 212 216 218 218 216 212 209 209 209 205 203 203 203 199 199 202 180 166 172 169 167 166 166 162 146 146 157 152 154 161 163 164 164 161 161 165 165 162 162 165 167 170 175 179
289 287 285 284 283 282 284 282 273 259 252 257 258 252 251 252 255 256 249 248 248 236 230 226 222 220 219 216 213 212 214 215 212 205 202 204 205 206 208 207 209 212 211 210 213 220 223 210 203 204 203 208 211 206 205 200 198 199 200 210 205 193 194 175 166 169 172 178 175 174 182 174 167 169 169 168 167 165 166 168 169 168 168 170 172 173 178 182
289 286 284 283 282 281 282 276 259 254 262 262 256 249 248 253 256 253 248 248 244 233 228 223 220 219 215 211 209 209 213 214 213 207 202 205 205 204 208 208 209 213 214 214 215 220 223 209 202 206 204 206 211 209 205 199 205 206 185 198 228 219 203 179 169 173 180 185 182 189 195 167 165 179 176 166 168 172 171 173 175 174 175 177 178 178 181 185
287 285 284 282 280 281 276 262 252 262 266 260 252 246 246 255 255 248 246 246 239 230 224 218 216 214 210 208 205 206 213 214 212 208 203 205 207 206 208 207 209 216 216 215 215 219 219 210 206 210 212 211 210 210 205 200 210 206 180 209 235 216 195 182 180 186 190 179 174 192 205 169 166 184 183 178 185 187 180 181 184 181 182 186 188 189 190 192
285 283 283 280 278 277 267 256 259 265 260 253 249 246 250 256 251 243 242 240 233 228 223 216 214 211 209 206 200 202 211 208 206 207 205 206 207 208 211 208 208 215 214 211 214 216 212 208 207 209 212 211 207 207 200 199 211 205 193 230 224 200 190 185 191 200 196 181 182 193 205 204 193 182 181 190 200 202 196 194 193 190 189 192 197 199 201 203
283 281 280 277 275 270 259 257 262 259 253 251 248 247 251 251 242 236 240 238 227 222 221 213 211 210 208 204 200 203 206 201 204 206 203 205 206 208 213 212 211 212 209 209 212 208 205 208 208 207 208 207 207 204 193 198 213 209 212 227 214 198 192 189 198 205 201 205 204 192 194 215 209 188 190 199 204 209 209 206 204 201 199 200 203 206 208 211
282 279 276 275 272 264 254 253 254 252 250 248 247 247 246 240 234 232 237 237 224 220 220 211 208 207 204 202 202 205 207 206 208 203 199 204 208 210 214 215 214 212 209 213 214 205 202 207 205 202 203 204 205 203 199 207 213 207 209 211 203 196 190 193 204 205 207 222 220 196 199 224 222 200 200 205 210 216 215 214 213 211 210 211 211 212 213 216
281 278 274 272 268 258 250 248 249 250 246 244 246 244 236 229 230 232 231 229 222 220 218 210 206 204 200 200 202 205 206 207 204 198 198 203 206 210 214 215 215 213 210 212 215 210 202 202 203 203 203 204 204 203 207 215 214 209 208 199 193 192 191 197 206 208 216 225 219 200 206 230 236 208 197 203 207 210 213 216 218 217 216 217 219 220 220 222
281 277 272 267 259 252 250 247 246 245 238 238 241 233 226 226 230 233 228 224 223 219 212 207 205 203 201 201 201 202 205 206 201 198 200 202 205 208 210 211 211 212 212 212 214 213 207 204 205 206 206 207 210 210 210 213 213 210 209 203 197 194 197 202 205 213 225 222 207 205 214 229 232 214 200 205 203 210 224 224 221 221 219 218 223 226 228 230
281 276 270 262 254 248 246 243 243 239 232 235 236 224 223 226 228 230 226 222 222 216 208 205 202 202 202 203 203 201 203 205 203 201 202 203 205 208 208 209 207 208 212 211 210 212 213 212 211 211 209 208 211 211 208 209 211 211 211 210 209 205 205 211 210 215 225 216 198 211 225 232 234 228 223 224 221 231 246 241 232 228 223 221 224 229 233 235
281 276 267 258 249 244 244 243 240 234 231 235 231 221 223 228 227 227 224 220 216 212 210 208 207 206 204 204 204 201 202 204 204 203 204 204 207 208 209 211 208 207 211 210 208 209 212 213 213 213 211 209 211 210 206 206 207 210 212 212 213 212 213 217 217 221 228 219 208 221 233 239 239 233 230 232 233 242 252 248 244 240 232 227 226 231 235 237
280 273 263 253 247 243 242 240 235 230 229 229 223 218 222 227 227 225 223 219 217 214 211 213 216 211 206 206 204 200 202 204 203 203 204 204 208 209 209 210 209 209 210 209 208 208 210 212 209 209 208 206 208 211 213 213 209 211 214 216 219 220 220 220 220 225 231 224 214 219 231 240 237 224 222 234 242 249 258 255 248 245 241 236 230 231 236 239
277 267 256 250 247 242 237 233 227 223 222 220 218 217 220 224 225 223 220 217 216 217 216 220 219 211 205 206 206 202 204 206 203 204 207 207 209 210 208 209 208 208 209 209 209 208 212 215 206 204 206 204 206 212 216 222 220 214 215 219 223 223 222 223 226 231 238 238 229 225 234 244 243 233 230 240 249 252 257 256 249 246 242 240 236 233 235 239
270 259 251 246 243 238 233 227 220 217 217 216 216 218 220 223 224 221 217 215 216 220 225 221 214 210 206 205 205 203 205 208 205 206 210 210 212 212 210 209 207 207 209 209 207 206 212 214 200 198 205 206 208 210 210 217 220 213 216 221 221 223 227 229 230 231 240 246 238 230 241 247 247 242 235 241 254 254 254 254 250 246 242 241 241 236 235 237
262 255 247 242 238 234 229 221 214 213 216 217 218 220 221 222 223 220 217 218 218 219 226 218 207 210 208 204 205 203 203 206 205 206 210 211 213 213 212 211 207 208 211 211 212 210 213 214 202 200 206 206 208 209 209 215 219 215 220 220 215 221 230 232 233 231 234 242 239 234 246 250 247 244 234 239 253 254 252 256 255 249 244 244 243 238 235 237
260 252 243 242 239 232 224 214 209 211 215 219 221 223 223 222 222 222 220 221 221 219 223 220 210 211 209 205 205 202 201 205 205 207 210 210 212 212 212 212 209 209 211 213 216 213 212 214 206 204 207 204 206 213 215 217 221 225 229 222 217 222 225 224 230 236 237 242 243 239 244 251 250 250 248 250 257 259 258 259 258 253 247 246 244 237 233 236
256 244 239 243 237 225 214 206 206 211 215 219 222 223 223 223 224 224 223 223 222 220 220 220 214 211 211 209 205 200 202 206 206 208 211 211 211 210 211 213 212 211 212 213 216 214 211 215 211 206 206 203 206 214 218 217 219 226 231 227 225 228 228 225 228 235 240 245 249 245 244 253 254 251 257 262 264 266 264 259 257 254 248 246 244 236 232 236
249 239 235 233 220 208 203 203 208 212 216 221 223 222 221 223 224 224 222 221 220 218 217 219 215 212 213 212 210 205 206 208 209 210 212 210 210 212 213 213 213 212 212 213 216 216 212 215 215 207 204 207 211 214 219 221 219 221 225 226 225 225 229 234 232 234 240 246 250 249 249 257 259 255 263 268 266 267 266 260 259 257 249 245 243 237 235 239
243 237 227 213 205 201 202 207 211 214 218 223 225 224 223 224 225 224 222 220 220 219 219 223 222 219 219 215 212 210 209 211 212 212 213 212 214 217 215 212 214 212 210 211 215 215 212 214 216 212 208 213 217 217 219 224 225 223 224 225 225 224 225 232 233 233 239 246 250 255 258 262 263 265 272 270 266 268 267 263 261 256 250 247 244 241 241 242
239 233 218 205 204 207 211 213 213 216 221 224 226 225 223 223 225 225 222 218 219 219 218 222 223 222 222 220 218 215 213 214 214 214 215 215 217 218 212 210 213 212 210 212 213 212 214 215 217 219 218 216 216 216 217 222 227 230 229 227 227 226 226 231 237 235 236 242 249 256 261 262 262 269 274 269 264 267 267 266 263 257 253 251 248 247 247 247
240 229 210 204 209 214 218 216 215 219 222 223 225 224 221 221 221 221 219 218 217 217 216 219 221 220 219 220 221 218 215 216 216 215 217 217 217 217 213 210 212 211 211 213 212 209 212 216 217 220 222 217 215 216 220 222 227 231 232 229 230 230 229 234 242 241 236 239 244 252 258 260 261 266 269 264 259 262 265 267 265 261 257 253 252 255 256 257
243 226 210 207 211 215 220 219 216 217 218 219 222 220 219 220 220 219 219 218 216 214 216 219 219 218 217 218 220 218 216 216 215 214 217 218 216 216 215 213 212 212 212 212 209 207 210 214 215 217 219 218 218 220 221 223 228 232 233 229 229 231 232 236 242 242 242 243 246 253 261 265 264 263 261 258 258 263 267 268 266 265 261 257 259 264 266 265
238 223 213 210 211 217 223 223 218 214 212 215 218 217 216 217 217 218 221 221 217 215 217 218 216 218 218 219 221 221 220 219 215 213 215 216 214 215 217 216 214 214 214 212 208 207 212 215 214 216 218 218 220 222 224 227 229 232 233 228 225 227 230 234 237 240 243 243 244 252 264 269 262 255 256 257 261 267 269 267 266 266 266 265 267 270 269 268
237 219 211 209 212 219 222 220 220 216 211 214 215 214 216 216 213 214 218 219 216 215 217 218 217 217 218 219 221 221 220 219 215 214 216 215 213 214 216 217 216 216 215 212 209 210 216 217 215 219 223 223 226 227 227 230 230 227 226 225 223 224 227 231 235 239 242 243 245 252 262 267 260 253 257 261 265 269 269 266 265 266 269 272 274 273 271 269
240 223 214 210 213 218 218 215 217 217 215 217 217 214 216 217 215 213 213 213 212 213 217 216 214 215 216 218 220 219 216 214 213 217 218 216 216 215 213 215 218 216 214 213 211 213 219 220 219 222 225 227 232 231 224 227 232 230 225 223 221 221 223 227 233 237 239 246 252 252 254 260 262 263 266 267 267 270 271 270 271 272 273 275 275 273 270 268
243 227 219 218 217 216 216 215 216 218 218 219 220 218 216 217 218 214 211 213 213 213 214 210 208 215 219 217 217 215 212 210 210 212 215 216 220 219 212 213 216 214 213 214 214 215 221 223 222 223 225 227 230 231 227 228 232 234 229 221 217 217 219 223 230 235 237 245 254 252 247 255 264 269 273 276 276 278 279 278 277 277 275 274 272 269 267 266
256 232 221 222 223 221 220 218 218 221 220 220 221 220 218 219 219 215 213 214 212 210 212 209 208 216 220 215 214 213 210 210 208 207 212 218 222 220 215 214 215 213 213 216 215 216 221 224 223 223 226 226 226 228 229 228 229 232 230 221 215 216 218 222 228 231 234 242 249 249 251 258 265 272 278 283 284 283 283 281 278 275 272 270 269 267 265 265
265 241 230 230 228 224 224 221 219 221 220 219 220 219 220 221 220 217 216 215 212 209 211 213 215 219 218 213 212 208 207 213 212 212 220 223 219 218 217 217 218 214 214 216 215 215 219 222 221 222 227 227 224 223 225 226 228 229 227 221 217 217 218 222 226 228 233 241 246 250 258 261 265 274 279 281 283 282 281 280 278 275 271 269 268 265 263 264
271 246 237 234 227 222 223 222 220 222 221 219 220 219 220 219 220 223 220 215 215 215 214 218 221 220 217 211 208 208 215 223 223 223 227 227 225 225 223 223 223 219 215 215 216 215 217 220 220 221 227 227 221 220 222 224 229 231 227 221 218 218 219 223 226 230 235 242 247 252 261 263 267 275 278 278 280 281 282 282 280 277 273 269 266 264 264 265
283 253 238 235 228 222 224 223 220 221 222 221 221 222 222 220 221 224 220 213 213 214 215 221 223 220 216 211 211 221 231 232 231 230 229 228 230 232 231 230 229 226 220 217 217 216 216 219 220 220 225 225 219 217 219 221 227 232 228 221 220 221 223 225 228 233 240 247 251 256 263 268 271 276 277 278 281 282 284 284 283 280 275 270 267 266 266 267